Regional Weather Roundup
Issued by NWS Cleveland, OH

Home | Current Version | Previous Version | Text Only | Print | Product List | Glossary Off
Versions: 1 2 3 4 5 6 7 8 9 10 11 12 13 14 15 16 17 18 19 20 21 22 23 24 25 26 27 28 29 30 31 32 33 34 35 36 37 38 39 40 41 42 43 44 45 46 47 48 49 50

000
ASUS41 KCLE 260910
RWRCLE
OHIO REGIONAL WEATHER ROUNDUP
NATIONAL WEATHER SERVICE CLEVELAND, OH
400 AM EST FRI DEC 26 2014

NOTE: "FAIR" INDICATES FEW OR NO CLOUDS BELOW 12,000 FEET WITH NO
SIGNIFICANT WEATHER AND/OR OBSTRUCTIONS TO VISIBILITY.

OHZ001>008-015>018-024>027-034-035-043-044-261000-
   NORTHWEST OHIO

CITY           SKY/WX    TMP DP  RH WIND       PRES   REMARKS
DEFIANCE       CLEAR     33  29  85 S7        30.16R WCI  27
FINDLAY        CLEAR     31  27  85 S7        30.17R WCI  24
TOLEDO EXPRESS PTCLDY    30  28  92 S5        30.16R WCI  25
TOLEDO EXEC    PTCLDY    30  27  88 S7        30.18R WCI  23
LIMA           CLEAR     35  30  82 S9        30.17R WCI  28
$$

OHZ009>014-019>023-028>033-038-089-261000-
   NORTHEAST OHIO

CITY           SKY/WX    TMP DP  RH WIND       PRES   REMARKS
CLE-HOPKINS    CLEAR     34  28  79 S9        30.21F WCI  27
CLE-LAKEFRONT  CLEAR     37  29  72 S9        30.18F
CUY CO. ARPT   NOT AVBL
LORAIN-ELYRIA  CLEAR     31  28  89 S8        30.19S WCI  23
ASHTABULA      CLEAR     32  27  81 S7        30.21S WCI  26
AKRON-CANTON   PTCLDY    31  26  82 S8        30.20S WCI  23
WOOSTER        CLEAR     32  28  85 S6        30.19F WCI  26
MANSFIELD      CLEAR     30  28  92 S9        30.18S WCI  22
YOUNGSTOWN     CLOUDY    35  28  75 SW6       30.20S
$$

OHZ042-051>053-060>062-070>072-077>081-261000-
  SOUTHWEST OHIO

CITY           SKY/WX    TMP DP  RH WIND       PRES   REMARKS
CINC-COVINGTON CLEAR     32  26  78 S6        30.21R WCI  26
CINC-LUNKEN    FOG       23  22  96 CALM      30.25R VSB 1/4
HAMILTON       CLEAR     28  27  96 E3        30.23R
DAYTON         CLEAR     33  30  88 S7        30.21R WCI  27
WRIGHT-PAT AFB CLEAR     30  28  92 S5        30.21R WCI  25
DAYTON GENERAL CLEAR     30  28  92 S7        30.20R WCI  23
WILMINGTON     CLEAR     31  27  85 S7        30.21R WCI  24
$$

OHZ036-037-039>041-045>050-054>059-063>069-073>076-082>088-261000-
  CENTRAL AND SOUTHEAST OHIO

CITY           SKY/WX    TMP DP  RH WIND       PRES   REMARKS
COLUMBUS       CLEAR     32  27  81 SE3       30.22R
OSU AIRPORT    CLEAR     32  28  85 S7        30.21R WCI  26
BOLTON FIELD   CLEAR     30  28  94 MISG      30.22S
RICKENBACK AFB CLEAR     30  28  92 S5        30.23S WCI  25
NEWARK         CLEAR     28  26  92 SW3       30.22R
MARION         CLEAR     31  28  89 S8        30.20R WCI  23
LANCASTER      CLEAR     30  27  88 SE6       30.23R WCI  24
ZANESVILLE     CLEAR     29  26  89 CALM      30.23R
NEW PHILLY     CLEAR     29  25  85 SE5       30.23S WCI  24
$$



USA.gov is the U.S. government's official web portal to all federal, state and local government web resources and services.